| time (UTC) | temp F | wind direction | speed knots | gust knots | rain 1hr in | rain 24hr in | rain mn in | humidity % | barometer mb |
| 20260505041740 | 63 | 335 | 0.9 | 1.7 | 0.00 | 0.00 | 0.00 | 57 | 1010.3 |
| 20260505041237 | 63 | 349 | 0.0 | 1.7 | 0.00 | 0.00 | 0.00 | 57 | 1010.2 |
| 20260505040734 | 63 | 52 | 0.0 | 1.7 | 0.00 | 0.00 | 0.00 | 56 | 1010.2 |
| 20260505040232 | 63 | 138 | 0.0 | 1.7 | 0.00 | 0.00 | 0.00 | 56 | 1010.3 |
| 20260505035729 | 63 | 53 | 0.0 | 0.9 | 0.00 | 0.00 | 0.00 | 55 | 1010.1 |
| 20260505035224 | 63 | 286 | 0.0 | 1.7 | 0.00 | 0.00 | 0.00 | 56 | 1010.3 |
| 20260505034722 | 63 | 24 | 0.9 | 2.6 | 0.00 | 0.00 | 0.00 | 56 | 1010.3 |
| 20260505034218 | 63 | 339 | 0.9 | 2.6 | 0.00 | 0.00 | 0.00 | 55 | 1010.6 |
| 20260505033715 | 63 | 331 | 0.9 | 1.7 | 0.00 | 0.00 | 0.00 | 55 | 1010.1 |
| 20260505033213 | 63 | 0 | 0.0 | 1.7 | 0.00 | 0.00 | 0.00 | 54 | 1010.2 |
| 20260505032711 | 63 | 329 | 0.0 | 0.9 | 0.00 | 0.00 | 0.00 | 54 | 1010.0 |
| 20260505032206 | 63 | 164 | 0.9 | 2.6 | 0.00 | 0.00 | 0.00 | 54 | 1010.2 |
| 20260505031704 | 63 | 28 | 1.7 | 1.7 | 0.00 | 0.00 | 0.00 | 54 | 1010.1 |
| 20260505031200 | 63 | 347 | 0.0 | 0.9 | 0.00 | 0.00 | 0.00 | 55 | 1010.2 |
| 20260505030657 | 62 | 15 | 0.9 | 1.7 | 0.00 | 0.00 | 0.00 | 54 | 1010.3 |
| 20260505030153 | 63 | 29 | 0.9 | 1.7 | 0.00 | 0.00 | 0.00 | 54 | 1010.5 |
| 20260505025649 | 63 | 340 | 0.0 | 1.7 | 0.00 | 0.00 | 0.00 | 53 | 1010.2 |
| 20260505025148 | 63 | 30 | 0.9 | 1.7 | 0.00 | 0.00 | 0.00 | 53 | 1010.2 |
| 20260505024645 | 63 | 29 | 0.9 | 1.7 | 0.00 | 0.00 | 0.00 | 52 | 1010.1 |
| 20260505024142 | 63 | 30 | 0.9 | 1.7 | 0.00 | 0.00 | 0.00 | 52 | 1010.1 |
| 20260505023639 | 63 | 33 | 1.7 | 1.7 | 0.00 | 0.00 | 0.00 | 52 | 1009.9 |
| 20260505023137 | 64 | 60 | 0.0 | 1.7 | 0.00 | 0.00 | 0.00 | 51 | 1009.8 |
| 20260505022634 | 64 | 211 | 1.7 | 2.6 | 0.00 | 0.00 | 0.00 | 51 | 1009.9 |
| 20260505022131 | 64 | 53 | 0.9 | 3.5 | 0.00 | 0.00 | 0.00 | 50 | 1010.2 |
| 20260505021627 | 63 | 165 | 0.0 | 1.7 | 0.00 | 0.00 | 0.00 | 50 | 1009.9 |
| 20260505021124 | 62 | 245 | 1.7 | 1.7 | 0.00 | 0.00 | 0.00 | 51 | 1010.3 |
| 20260505020620 | 62 | 49 | 1.7 | 1.7 | 0.00 | 0.00 | 0.00 | 51 | 1010.2 |
| 20260505020116 | 62 | 46 | 1.7 | 1.7 | 0.00 | 0.00 | 0.00 | 51 | 1009.9 |
| 20260505015613 | 62 | 37 | 0.0 | 2.6 | 0.00 | 0.00 | 0.00 | 53 | 1010.2 |
| 20260505015110 | 63 | 34 | 1.7 | 1.7 | 0.00 | 0.00 | 0.00 | 51 | 1009.9 |
| 20260505014607 | 62 | 31 | 1.7 | 2.6 | 0.00 | 0.00 | 0.00 | 51 | 1010.1 |
| 20260505014104 | 62 | 12 | 1.7 | 2.6 | 0.00 | 0.00 | 0.00 | 52 | 1009.9 |
| 20260505013601 | 62 | 40 | 1.7 | 1.7 | 0.00 | 0.00 | 0.00 | 51 | 1009.9 |
| 20260505013058 | 62 | 25 | 0.9 | 2.6 | 0.00 | 0.00 | 0.00 | 52 | 1010.0 |
| 20260505012556 | 63 | 68 | 0.0 | 1.7 | 0.00 | 0.00 | 0.00 | 57 | 1009.8 |
| 20260505012053 | 63 | 52 | 1.7 | 2.6 | 0.00 | 0.00 | 0.00 | 51 | 1009.8 |
| 20260505011548 | 64 | 39 | 1.7 | 1.7 | 0.00 | 0.00 | 0.00 | 49 | 1009.9 |
| 20260505011046 | 64 | 15 | 1.7 | 1.7 | 0.00 | 0.00 | 0.00 | 49 | 1010.1 |
| 20260505010541 | 64 | 5 | 1.7 | 1.7 | 0.00 | 0.00 | 0.00 | 48 | 1010.0 |
| 20260505010038 | 65 | 28 | 1.7 | 1.7 | 0.00 | 0.00 | 0.00 | 48 | 1009.8 |
| 20260505005534 | 65 | 35 | 1.7 | 1.7 | 0.00 | 0.00 | 0.00 | 46 | 1009.7 |
| 20260505005032 | 66 | 37 | 1.7 | 1.7 | 0.00 | 0.00 | 0.00 | 45 | 1009.7 |
| 20260505004529 | 66 | 69 | 0.0 | 1.7 | 0.00 | 0.00 | 0.00 | 44 | 1009.5 |
| 20260505004026 | 66 | 345 | 0.0 | 2.6 | 0.00 | 0.00 | 0.00 | 46 | 1009.6 |
| 20260505003523 | 67 | 20 | 0.9 | 2.6 | 0.00 | 0.00 | 0.00 | 45 | 1009.4 |
| 20260505003020 | 68 | 66 | 1.7 | 1.7 | 0.00 | 0.00 | 0.00 | 42 | 1009.3 |
| 20260505002515 | 68 | 43 | 1.7 | 1.7 | 0.00 | 0.00 | 0.00 | 41 | 1009.3 |
| 20260505002014 | 68 | 211 | 1.7 | 2.6 | 0.00 | 0.00 | 0.00 | 41 | 1009.2 |
| 20260505001511 | 69 | 132 | 0.0 | 1.7 | 0.00 | 0.00 | 0.00 | 41 | 1009.2 |
| 20260505001008 | 69 | 52 | 0.0 | 1.7 | 0.00 | 0.00 | 0.00 | 41 | 1009.3 |
| 20260505000506 | 69 | 73 | 1.7 | 1.7 | 0.00 | 0.00 | 0.00 | 40 | 1009.3 |
| 20260505000003 | 70 | 172 | 0.0 | 1.7 | 0.00 | 0.00 | 0.00 | 40 | 1009.3 |
| 20260504235500 | 70 | 255 | 0.0 | 1.7 | 0.00 | 0.00 | 0.00 | 40 | 1009.4 |
| 20260504234956 | 70 | 72 | 0.0 | 3.5 | 0.00 | 0.00 | 0.00 | 39 | 1009.2 |
| 20260504234453 | 70 | 200 | 1.7 | 7.8 | 0.00 | 0.00 | 0.00 | 39 | 1009.0 |
| 20260504233950 | 71 | 195 | 1.7 | 4.3 | 0.00 | 0.00 | 0.00 | 39 | 1009.3 |
| 20260504233445 | 71 | 277 | 0.9 | 4.3 | 0.00 | 0.00 | 0.00 | 39 | 1009.3 |
| 20260504232943 | 71 | 208 | 0.9 | 2.6 | 0.00 | 0.00 | 0.00 | 38 | 1009.2 |
| 20260504232440 | 71 | 71 | 0.9 | 3.5 | 0.00 | 0.00 | 0.00 | 38 | 1009.3 |
| 20260504231937 | 71 | 115 | 3.5 | 4.3 | 0.00 | 0.00 | 0.00 | 38 | 1009.4 |
| 20260504231433 | 71 | 102 | 0.9 | 5.2 | 0.00 | 0.00 | 0.00 | 39 | 1009.4 |
| 20260504230929 | 71 | 198 | 1.7 | 4.3 | 0.00 | 0.00 | 0.00 | 38 | 1009.3 |
| 20260504230426 | 72 | 86 | 1.7 | 7.0 | 0.00 | 0.00 | 0.00 | 37 | 1009.3 |
| 20260504225926 | 72 | 224 | 3.5 | 4.3 | 0.00 | 0.00 | 0.00 | 37 | 1009.2 |
| 20260504225422 | 72 | 256 | 1.7 | 5.2 | 0.00 | 0.00 | 0.00 | 38 | 1009.2 |
| 20260504224919 | 72 | 277 | 1.7 | 6.1 | 0.00 | 0.00 | 0.00 | 37 | 1009.3 |
| 20260504224415 | 72 | 165 | 1.7 | 7.0 | 0.00 | 0.00 | 0.00 | 37 | 1009.6 |
| 20260504223913 | 73 | 242 | 2.6 | 7.8 | 0.00 | 0.00 | 0.00 | 37 | 1009.3 |
| 20260504223408 | 73 | 209 | 4.3 | 7.0 | 0.00 | 0.00 | 0.00 | 37 | 1009.4 |
| 20260504222904 | 72 | 274 | 3.5 | 4.3 | 0.00 | 0.00 | 0.00 | 37 | 1009.4 |
| 20260504222402 | 72 | 173 | 2.6 | 7.8 | 0.00 | 0.00 | 0.00 | 38 | 1009.5 |
| 20260504221900 | 72 | 207 | 2.6 | 4.3 | 0.00 | 0.00 | 0.00 | 38 | 1009.1 |
| 20260504221356 | 73 | 209 | 2.6 | 5.2 | 0.00 | 0.00 | 0.00 | 37 | 1009.5 |
| 20260504220854 | 73 | 216 | 9.6 | 10.4 | 0.00 | 0.00 | 0.00 | 36 | 1009.5 |
| 20260504220350 | 74 | 207 | 2.6 | 9.6 | 0.00 | 0.00 | 0.00 | 36 | 1009.7 |
| 20260504215847 | 74 | 202 | 3.5 | 8.7 | 0.00 | 0.00 | 0.00 | 35 | 1009.5 |
| 20260504215344 | 74 | 208 | 3.5 | 10.4 | 0.00 | 0.00 | 0.00 | 35 | 1009.6 |
| 20260504214840 | 74 | 199 | 3.5 | 6.1 | 0.00 | 0.00 | 0.00 | 35 | 1009.4 |
| 20260504214337 | 74 | 220 | 2.6 | 6.1 | 0.00 | 0.00 | 0.00 | 36 | 1009.6 |
| 20260504213833 | 74 | 216 | 5.2 | 12.2 | 0.00 | 0.00 | 0.00 | 35 | 1009.4 |
| 20260504213329 | 74 | 221 | 2.6 | 4.3 | 0.00 | 0.00 | 0.00 | 36 | 1009.4 |
| 20260504212827 | 74 | 209 | 0.9 | 11.3 | 0.00 | 0.00 | 0.00 | 36 | 1009.4 |
| 20260504212323 | 74 | 283 | 4.3 | 6.1 | 0.00 | 0.00 | 0.00 | 35 | 1009.6 |
| 20260504211821 | 74 | 282 | 5.2 | 10.4 | 0.00 | 0.00 | 0.00 | 36 | 1009.5 |
| 20260504211316 | 74 | 194 | 6.1 | 10.4 | 0.00 | 0.00 | 0.00 | 35 | 1009.4 |
| 20260504210814 | 74 | 153 | 3.5 | 11.3 | 0.00 | 0.00 | 0.00 | 34 | 1009.5 |
| 20260504210311 | 74 | 153 | 2.6 | 3.5 | 0.00 | 0.00 | 0.00 | 35 | 1009.4 |
| 20260504205809 | 74 | 266 | 1.7 | 11.3 | 0.00 | 0.00 | 0.00 | 35 | 1009.4 |
| 20260504205306 | 74 | 188 | 2.6 | 7.8 | 0.00 | 0.00 | 0.00 | 36 | 1009.5 |
| 20260504204804 | 74 | 226 | 6.1 | 9.6 | 0.00 | 0.00 | 0.00 | 35 | 1009.4 |
| 20260504204302 | 74 | 213 | 6.1 | 6.1 | 0.00 | 0.00 | 0.00 | 35 | 1009.4 |
| 20260504203801 | 74 | 216 | 2.6 | 9.6 | 0.00 | 0.00 | 0.00 | 35 | 1009.5 |
| 20260504203258 | 74 | 196 | 3.5 | 8.7 | 0.00 | 0.00 | 0.00 | 35 | 1009.5 |
| 20260504202758 | 74 | 133 | 5.2 | 7.0 | 0.00 | 0.00 | 0.00 | 36 | 1009.6 |
| 20260504202256 | 73 | 183 | 5.2 | 7.8 | 0.00 | 0.00 | 0.00 | 35 | 1009.7 |
| 20260504201753 | 74 | 226 | 4.3 | 13.0 | 0.00 | 0.00 | 0.00 | 34 | 1009.5 |
| 20260504201250 | 74 | 211 | 1.7 | 7.8 | 0.00 | 0.00 | 0.00 | 36 | 1009.7 |
| 20260504200748 | 74 | 166 | 1.7 | 9.6 | 0.00 | 0.00 | 0.00 | 38 | 1009.6 |
| 20260504200243 | 74 | 225 | 1.7 | 8.7 | 0.00 | 0.00 | 0.00 | 35 | 1010.0 |
| 20260504195740 | 73 | 113 | 0.9 | 6.1 | 0.00 | 0.00 | 0.00 | 35 | 1010.1 |
| 20260504195236 | 73 | 225 | 5.2 | 14.8 | 0.00 | 0.00 | 0.00 | 36 | 1010.2 |
| 20260504194733 | 73 | 218 | 7.0 | 10.4 | 0.00 | 0.00 | 0.00 | 35 | 1010.0 |
| 20260504194229 | 73 | 177 | 1.7 | 7.8 | 0.00 | 0.00 | 0.00 | 35 | 1010.2 |
| 20260504193726 | 73 | 222 | 7.0 | 13.9 | 0.00 | 0.00 | 0.00 | 36 | 1010.3 |
| 20260504193223 | 73 | 143 | 3.5 | 9.6 | 0.00 | 0.00 | 0.00 | 38 | 1010.3 |
| 20260504192721 | 72 | 218 | 5.2 | 7.8 | 0.00 | 0.00 | 0.00 | 35 | 1010.5 |
| 20260504192219 | 72 | 174 | 4.3 | 10.4 | 0.00 | 0.00 | 0.00 | 35 | 1010.8 |
| 20260504191718 | 72 | 47 | 0.9 | 8.7 | 0.00 | 0.00 | 0.00 | 35 | 1010.8 |
| 20260504191214 | 72 | 314 | 2.6 | 7.8 | 0.00 | 0.00 | 0.00 | 34 | 1011.0 |
| 20260504190709 | 72 | 235 | 1.7 | 5.2 | 0.00 | 0.00 | 0.00 | 36 | 1011.1 |
| 20260504190206 | 72 | 318 | 3.5 | 6.1 | 0.00 | 0.00 | 0.00 | 37 | 1010.9 |
| 20260504185703 | 71 | 82 | 0.9 | 11.3 | 0.00 | 0.00 | 0.00 | 38 | 1011.1 |
| 20260504185159 | 71 | 226 | 4.3 | 12.2 | 0.00 | 0.00 | 0.00 | 35 | 1010.9 |
| 20260504184655 | 72 | 191 | 1.7 | 7.8 | 0.00 | 0.00 | 0.00 | 36 | 1011.3 |
| 20260504184150 | 71 | 198 | 4.3 | 5.2 | 0.00 | 0.00 | 0.00 | 38 | 1011.5 |
| 20260504183648 | 72 | 234 | 7.0 | 11.3 | 0.00 | 0.00 | 0.00 | 36 | 1011.4 |
| 20260504183145 | 71 | 135 | 1.7 | 10.4 | 0.00 | 0.00 | 0.00 | 38 | 1011.4 |
| 20260504182643 | 71 | 107 | 3.5 | 5.2 | 0.00 | 0.00 | 0.00 | 36 | 1011.6 |
| 20260504182140 | 72 | 223 | 6.1 | 8.7 | 0.00 | 0.00 | 0.00 | 37 | 1011.6 |
| 20260504181637 | 71 | 334 | 1.7 | 4.3 | 0.00 | 0.00 | 0.00 | 34 | 1011.7 |
| 20260504181135 | 71 | 213 | 7.0 | 8.7 | 0.00 | 0.00 | 0.00 | 37 | 1011.7 |
| 20260504180634 | 71 | 186 | 3.5 | 6.1 | 0.00 | 0.00 | 0.00 | 37 | 1011.8 |
| 20260504180132 | 71 | 194 | 1.7 | 4.3 | 0.00 | 0.00 | 0.00 | 36 | 1012.2 |
| 20260504175629 | 70 | 214 | 5.2 | 7.8 | 0.00 | 0.00 | 0.00 | 37 | 1011.8 |
| 20260504175125 | 70 | 211 | 4.3 | 8.7 | 0.00 | 0.00 | 0.00 | 37 | 1012.1 |
| 20260504174624 | 70 | 223 | 5.2 | 11.3 | 0.00 | 0.00 | 0.00 | 36 | 1012.0 |
| 20260504174120 | 69 | 224 | 3.5 | 7.8 | 0.00 | 0.00 | 0.00 | 36 | 1011.7 |
| 20260504173617 | 69 | 131 | 3.5 | 6.1 | 0.00 | 0.00 | 0.00 | 37 | 1012.0 |
| 20260504173115 | 70 | 186 | 5.2 | 13.0 | 0.00 | 0.00 | 0.00 | 35 | 1012.2 |
| 20260504172611 | 69 | 184 | 1.7 | 4.3 | 0.00 | 0.00 | 0.00 | 39 | 1012.3 |
| 20260504172108 | 69 | 229 | 6.1 | 8.7 | 0.00 | 0.00 | 0.00 | 37 | 1012.0 |
| 20260504171604 | 69 | 229 | 7.8 | 8.7 | 0.00 | 0.00 | 0.00 | 35 | 1012.2 |
| 20260504171101 | 69 | 220 | 3.5 | 13.0 | 0.00 | 0.00 | 0.00 | 36 | 1012.2 |
| 20260504170556 | 68 | 174 | 1.7 | 7.8 | 0.00 | 0.00 | 0.00 | 37 | 1012.4 |
| 20260504150941 | 65 | 22 | 0.9 | 4.3 | 0.00 | 0.00 | 0.00 | 39 | 1013.6 |
| 20260504150437 | 65 | 233 | 6.1 | 11.3 | 0.00 | 0.00 | 0.00 | 37 | 1013.7 |
| 20260504140904 | 61 | 243 | 7.0 | 10.4 | 0.00 | 0.00 | 0.00 | 39 | 1014.1 |
| 20260504140400 | 61 | 204 | 6.1 | 9.6 | 0.00 | 0.00 | 0.00 | 38 | 1014.1 |
| 20260504130325 | 53 | 121 | 0.9 | 3.5 | 0.00 | 0.00 | 0.00 | 54 | 1014.4 |
| 20260504120248 | 48 | 336 | 0.9 | 2.6 | 0.00 | 0.00 | 0.00 | 58 | 1014.8 |
| 20260504110716 | 44 | 66 | 0.0 | 1.7 | 0.00 | 0.00 | 0.00 | 65 | 1014.6 |
| 20260504110212 | 44 | 35 | 0.9 | 1.7 | 0.00 | 0.00 | 0.00 | 65 | 1014.8 |
| 20260504100136 | 39 | 51 | 1.7 | 2.6 | 0.00 | 0.00 | 0.00 | 77 | 1014.9 |
| 20260504081529 | 40 | 45 | 1.7 | 1.7 | 0.00 | 0.00 | 0.00 | 74 | 1015.3 |
| 20260504081025 | 40 | 59 | 1.7 | 2.6 | 0.00 | 0.00 | 0.00 | 72 | 1015.2 |
| 20260504080521 | 40 | 78 | 1.7 | 2.6 | 0.00 | 0.00 | 0.00 | 74 | 1015.2 |
| 20260504050334 | 44 | 20 | 0.0 | 1.7 | 0.00 | 0.00 | 0.00 | 65 | 1015.4 |
| 20260504045831 | 44 | 57 | 1.7 | 1.7 | 0.00 | 0.00 | 0.00 | 67 | 1015.5 |
| 20260504045326 | 44 | 54 | 1.7 | 2.6 | 0.00 | 0.00 | 0.00 | 69 | 1015.4 |
| 20260504044823 | 44 | 59 | 1.7 | 1.7 | 0.00 | 0.00 | 0.00 | 68 | 1015.5 |
| 20260504044320 | 45 | 78 | 1.7 | 1.7 | 0.00 | 0.00 | 0.00 | 66 | 1015.6 |
| 20260504043818 | 45 | 51 | 1.7 | 1.7 | 0.00 | 0.00 | 0.00 | 62 | 1015.7 |
| 20260504043314 | 45 | 19 | 0.9 | 1.7 | 0.00 | 0.00 | 0.00 | 57 | 1015.6 |
| 20260504042812 | 45 | 29 | 0.9 | 2.6 | 0.00 | 0.00 | 0.00 | 60 | 1015.6 |
| 20260504042308 | 45 | 46 | 1.7 | 1.7 | 0.00 | 0.00 | 0.00 | 61 | 1015.4 |
| 20260504041805 | 45 | 326 | 0.0 | 1.7 | 0.00 | 0.00 | 0.00 | 60 | 1015.4 |